Weather History for KCNK - November, 2014

Change the Weather History Date:

Friday, November 21, 2014

  Actual Average Record
Temperature  
Mean Temperature 32 °F 39 °F  
Max Temperature 45 °F 49 °F 73 °F (2012)
Min Temperature 19 °F 28 °F 5 °F (1964)
Degree Days  
Heating Degree Days 33 26  
Month to date heating degree days 604 440  
Since 1 July heating degree days 935 831  
Cooling Degree Days 0 0  
Month to date cooling degree days 0 0  
Year to date cooling degree days 1368 1348  
Moisture  
Dew Point 30 °F    
Average Humidity 77    
Maximum Humidity 100    
Minimum Humidity 53    
Precipitation  
Precipitation 0.00 in 0.03 in 0.64 in (1898)
Month to date precipitation 0.08 0.82  
Year to date precipitation 26.43 26.75  
Snow  
Snow 0.00 in 0.10 in 0.30 in (1972)
Month to date snowfall 1.1 1.4  
Year to date snowfall 18.0 15.3  
Since 1 July snowfall 1.1 1.6  
Snow Depth 0.00 in    
Sea Level Pressure  
Sea Level Pressure 30.09 in    
Wind  
Wind Speed 5 mph (SE)    
Max Wind Speed 13 mph    
Max Gust Speed 17 mph    
Visibility 6 miles    
Events      
T = Trace of Precipitation, MM = Missing Value Source: NWS Daily Summary

Daily Weather History Graph

Daily Weather History Graph

Search for Another Location

Airport or City:

Trip Planner

Search our weather history database for the weather conditions in past years. The results will help you decide how hot, cold, wet, or windy it might be!

Date:

Astronomy

Nov. 21, 2014 Rise Set
Actual Time 7:21 AM CST 5:11 PM CST
Civil Twilight 6:52 AM CST 5:40 PM CST
Nautical Twilight 6:19 AM CST 6:13 PM CST
Astronomical Twilight 5:47 AM CST 6:45 PM CST
Moon 6:18 AM CST (11/21) 4:56 PM CST (11/21)
Length of Visible Light 10h 48m
Length of Day
9h 49m
Waning Crescent, 1% of the Moon is Illuminated
Nov 21
Waning Crescent
Nov 22
New
Nov 29
First Quarter
Dec 6
Full
Dec 14
Last Quarter

Hourly Weather History & Observations

Time (CST) Temp. Windchill Dew Point Humidity Pressure Visibility Wind Dir Wind Speed Gust Speed Precip Events Conditions
12:55 AM 21.0 °F 13.4 °F 17.1 °F 85% 30.24 in 10.0 mi East 5.8 mph - N/A   Clear
1:55 AM 19.9 °F 13.4 °F 17.1 °F 89% 30.22 in 10.0 mi ESE 4.6 mph - N/A   Clear
2:55 AM 19.9 °F 14.9 °F 16.0 °F 85% 30.22 in 10.0 mi East 3.5 mph - N/A   Clear
3:55 AM 21.0 °F 13.4 °F 17.1 °F 85% 30.20 in 10.0 mi SE 5.8 mph - N/A   Clear
4:55 AM 23.0 °F 12.4 °F 18.0 °F 81% 30.19 in 10.0 mi ESE 10.4 mph - N/A   Clear
5:55 AM 21.0 °F 13.4 °F 17.1 °F 85% 30.20 in 10.0 mi ENE 5.8 mph - N/A   Clear
6:55 AM 19.9 °F 12.1 °F 17.1 °F 89% 30.20 in 10.0 mi East 5.8 mph - N/A   Clear
7:55 AM 19.9 °F 14.9 °F 17.1 °F 89% 30.21 in 8.0 mi ENE 3.5 mph - N/A   Clear
8:55 AM 26.1 °F 17.6 °F 19.9 °F 78% 30.19 in 10.0 mi ESE 8.1 mph - N/A   Clear
9:55 AM 32.0 °F 24.8 °F 21.9 °F 66% 30.19 in 10.0 mi SE 8.1 mph - N/A   Clear
10:55 AM 35.1 °F 30.1 °F 23.0 °F 61% 30.18 in 10.0 mi SE 5.8 mph - N/A   Clear
11:55 AM 42.1 °F 39.2 °F 26.1 °F 53% 30.14 in 10.0 mi East 4.6 mph - N/A   Clear
12:42 PM 44.1 °F 40.8 °F 27.0 °F 51% 30.07 in 10.0 mi ESE 5.8 mph - N/A   Mostly Cloudy
12:55 PM 45.0 °F - 28.9 °F 53% 30.10 in 10.0 mi Calm Calm - N/A   Overcast
1:21 PM 43.0 °F 38.8 °F 30.0 °F 60% 30.05 in 10.0 mi ESE 6.9 mph - N/A   Overcast
1:55 PM 42.1 °F 38.4 °F 36.0 °F 79% 30.09 in 7.0 mi South 5.8 mph - N/A   Overcast
2:55 PM 41.0 °F 34.7 °F 34.0 °F 76% 30.07 in 8.0 mi SE 10.4 mph - N/A   Overcast
3:55 PM 37.9 °F 31.5 °F 33.1 °F 83% 30.07 in 7.0 mi SE 9.2 mph - N/A   Overcast
4:55 PM 37.9 °F 32.7 °F 33.1 °F 83% 30.07 in 8.0 mi SE 6.9 mph - N/A   Overcast
5:25 PM 37.0 °F 31.0 °F 34.0 °F 89% 30.03 in 8.0 mi SE 8.1 mph - N/A   Overcast
5:47 PM 37.0 °F 30.4 °F 35.1 °F 93% 30.02 in 7.0 mi ESE 9.2 mph - N/A   Overcast
5:55 PM 37.0 °F 29.8 °F 35.1 °F 93% 30.07 in 7.0 mi SE 10.4 mph - N/A   Overcast
6:27 PM 35.1 °F 27.9 °F 35.1 °F 100% 30.03 in 2.5 mi SE 9.2 mph - N/A   Overcast
6:37 PM 35.1 °F 30.1 °F 35.1 °F 100% 30.02 in 1.5 mi ESE 5.8 mph - N/A   Overcast
6:51 PM 35.6 °F 31.7 °F 35.6 °F 100% 30.02 in 1.0 mi ESE 4.6 mph - N/A   Overcast
6:55 PM 35.1 °F 30.1 °F 35.1 °F 100% 30.06 in 0.8 mi ESE 5.8 mph - N/A   Overcast
7:43 PM 35.1 °F 32.2 °F 35.1 °F 100% 30.02 in 1.0 mi SE 3.5 mph - N/A   Overcast
7:55 PM 35.1 °F - 35.1 °F 100% 30.07 in 1.8 mi Calm Calm - N/A   Overcast
8:53 PM 35.6 °F - 35.6 °F 100% 30.02 in 1.5 mi Calm Calm - N/A   Overcast
8:55 PM 36.0 °F - 36.0 °F 100% 30.06 in 1.2 mi Calm Calm - N/A   Overcast
9:41 PM 36.0 °F - 36.0 °F 100% 30.01 in 1.5 mi Calm Calm - N/A   Overcast
9:48 PM 36.0 °F - 36.0 °F 100% 30.01 in 1.8 mi Calm Calm - N/A   Overcast
9:55 PM 37.0 °F - 37.0 °F 100% 30.04 in 2.0 mi Calm Calm - N/A   Overcast
10:16 PM 37.0 °F - 37.0 °F 100% 30.01 in 1.8 mi Calm Calm - N/A   Overcast
10:33 PM 37.0 °F 33.3 °F 37.0 °F 100% 30.01 in 1.5 mi South 4.6 mph - N/A   Overcast
10:42 PM 37.0 °F 34.5 °F 37.0 °F 100% 30.00 in 1.8 mi SSW 3.5 mph - N/A   Overcast
10:55 PM 37.0 °F 33.3 °F 37.0 °F 100% 30.04 in 2.0 mi SSW 4.6 mph - N/A   Overcast
11:53 PM 37.4 °F 32.1 °F 37.4 °F 100% 29.99 in 3.0 mi South 6.9 mph - N/A   Overcast
11:55 PM 37.0 °F 31.6 °F 37.0 °F 100% 30.01 in 3.0 mi South 6.9 mph - N/A   Overcast